period_start,C,m1,H,J0,J1,J2,J3,J4,J5,JA,JB,JC,JD,JJ,JK,JN,#
2016-02-04 00:01:00,0.11,1.59,0.00,16.21,19.97,23.99,14.92,47.26,1020.04,2062.00,2969.60,2750.97,3087.55,600.02,612.07,13.19,0000 0000 0000 0000 000000
2016-02-04 00:06:01,0.13,1.60,0.00,16.19,19.95,23.95,15.06,47.73,1020.04,2062.00,2967.19,2749.57,3085.84,600.18,612.31,13.24,0000 0000 0000 0000 000000
2016-02-04 00:11:02,0.10,1.61,0.00,16.16,19.94,23.99,14.84,47.35,1020.04,2062.00,2964.84,2748.08,3084.16,599.72,611.89,13.29,0000 0000 0000 0000 000000
2016-02-04 00:16:03,0.12,1.61,0.00,16.17,19.94,23.96,14.91,47.40,1020.04,2062.00,2962.62,2746.69,3082.49,599.81,612.01,13.34,0000 0000 0000 0000 000000
2016-02-04 00:21:04,0.11,1.62,0.00,16.17,19.94,24.00,14.98,47.35,1020.04,2062.00,2960.43,2745.31,3080.81,600.17,612.32,13.39,0000 0000 0000 0000 000000
2016-02-04 00:26:05,0.12,1.62,0.00,16.16,19.94,24.04,14.90,47.48,1020.04,2062.00,2958.07,2743.80,3079.19,599.58,611.75,13.44,0000 0000 0000 0000 000000
2016-02-04 00:31:07,0.11,1.63,0.00,16.16,19.94,23.97,14.99,47.52,1020.04,2062.00,2955.90,2742.37,3077.41,600.12,612.33,13.49,0000 0000 0000 0000 000000
2016-02-04 00:36:08,0.11,1.64,0.00,16.16,19.94,23.96,14.93,47.56,1020.04,2062.00,2953.69,2740.97,3075.70,600.03,612.17,13.54,0000 0000 0000 0000 000000
2016-02-04 00:41:09,0.12,1.64,0.00,16.16,19.95,23.98,15.00,47.45,1020.04,2062.00,2951.66,2739.57,3073.89,600.30,612.60,13.59,0000 0000 0000 0000 000000
2016-02-04 00:46:11,0.10,1.65,0.00,16.15,19.95,24.01,15.03,47.55,1020.04,2062.00,2949.62,2738.12,3072.08,600.50,612.71,13.64,0000 0000 0000 0000 000000
2016-02-04 00:51:12,0.11,1.65,0.00,16.17,19.96,24.07,14.92,47.31,1020.03,2062.00,2947.50,2736.72,3070.44,599.68,611.85,13.69,0000 0000 0000 0000 000000
2016-02-04 00:56:13,0.11,1.66,0.00,16.16,19.96,24.04,14.98,47.25,1020.01,2062.00,2945.34,2735.32,3068.69,600.36,612.48,13.74,0000 0000 0000 0000 000000
2016-02-04 01:01:14,0.12,1.66,0.00,16.18,19.95,23.96,14.92,47.27,1019.96,2061.99,2943.18,2733.74,3066.90,599.83,611.90,13.79,0000 0000 0000 0000 000000
2016-02-04 01:06:16,0.11,1.67,0.00,16.17,19.94,23.98,14.93,47.25,1019.89,2061.99,2941.02,2732.45,3065.30,600.11,612.17,13.84,0000 0000 0000 0000 000000
2016-02-04 01:11:17,0.11,1.68,0.00,16.16,19.94,23.95,14.90,47.27,1020.00,2061.99,2938.68,2731.07,3063.76,599.94,612.11,13.89,0000 0000 0000 0000 000000
2016-02-04 01:16:18,0.13,1.68,0.00,16.14,19.93,24.00,14.99,47.38,1020.02,2061.99,2936.43,2729.60,3061.95,600.26,612.45,13.94,0000 0000 0000 0000 000000
2016-02-04 01:21:20,0.10,1.69,0.00,16.15,19.92,23.92,14.93,47.32,1020.03,2061.99,2934.21,2728.21,3060.37,600.09,612.37,13.99,0000 0000 0000 0000 000000
2016-02-04 01:26:21,0.12,1.69,0.00,16.14,19.92,23.91,15.00,47.37,1020.02,2061.99,2931.95,2726.75,3058.74,600.06,612.18,14.04,0000 0000 0000 0000 000000
2016-02-04 01:31:22,0.11,1.70,0.00,16.15,19.90,23.93,14.98,47.39,1019.97,2061.99,2929.56,2725.38,3057.14,600.18,612.32,14.09,0000 0000 0000 0000 000000
2016-02-04 01:36:24,0.11,1.71,0.00,16.14,19.89,24.02,14.91,47.33,1019.98,2061.99,2927.53,2723.93,3055.51,599.85,612.15,14.14,0000 0000 0000 0000 000000
2016-02-04 01:41:25,0.12,1.71,0.00,16.14,19.89,23.94,14.99,47.31,1020.03,2061.99,2925.25,2722.57,3053.80,600.31,612.54,14.19,0000 0000 0000 0000 000000
2016-02-04 01:46:26,0.11,1.72,0.00,16.13,19.89,23.88,14.94,47.33,1020.03,2062.00,2923.08,2721.16,3052.17,599.87,612.11,14.24,0000 0000 0000 0000 000000
2016-02-04 01:51:28,0.12,1.72,0.00,16.10,19.89,23.92,15.00,47.56,1020.04,2062.00,2920.97,2719.78,3050.50,599.88,612.19,14.29,0000 0000 0000 0000 000000
2016-02-04 01:56:29,0.11,1.73,0.00,16.12,19.89,23.90,14.97,47.42,1020.04,2062.00,2918.98,2718.41,3048.78,600.49,612.61,14.34,0000 0000 0000 0000 000000
2016-02-04 02:01:31,0.11,1.74,0.00,16.12,19.89,23.89,14.96,47.38,1020.04,2062.00,2916.67,2716.95,3047.16,600.17,612.44,14.39,0000 0000 0000 0000 000000
2016-02-04 02:06:32,0.12,1.74,0.00,16.12,19.89,23.87,14.93,47.26,1020.04,2062.00,2914.47,2715.54,3045.45,600.10,612.38,14.44,0000 0000 0000 0000 000000
2016-02-04 02:11:33,0.11,1.75,0.00,16.12,19.89,23.94,14.97,47.52,1020.04,2062.00,2912.19,2714.13,3043.81,599.87,612.12,14.49,0000 0000 0000 0000 000000
2016-02-04 02:16:34,0.12,1.75,0.00,16.11,19.89,23.96,14.91,47.31,1020.05,2062.00,2909.97,2712.75,3042.33,600.06,612.55,14.54,0000 0000 0000 0000 000000
2016-02-04 02:21:35,0.11,1.76,0.00,16.11,19.89,23.88,15.02,47.56,1020.04,2062.02,2907.74,2711.50,3040.70,600.38,612.72,14.59,0000 0000 0000 0000 000000
2016-02-04 02:26:36,0.11,1.77,0.00,16.09,19.89,23.88,14.95,47.58,1020.04,2062.00,2905.74,2710.06,3039.07,599.98,612.30,14.65,0000 0000 0000 0000 000000
2016-02-04 02:31:38,0.12,1.77,0.00,16.09,19.89,23.96,14.91,47.45,1020.04,2062.01,2903.60,2708.64,3037.31,599.92,612.24,14.70,0000 0000 0000 0000 000000
2016-02-04 02:36:39,0.11,1.78,0.00,16.09,19.91,23.95,14.95,47.45,1020.03,2062.00,2901.45,2707.29,3035.62,599.76,612.23,14.75,0000 0000 0000 0000 000000
2016-02-04 02:41:40,0.13,1.78,0.00,16.11,19.92,23.87,14.91,47.60,1020.03,2062.00,2899.30,2705.80,3033.84,599.70,612.01,14.80,0000 0000 0000 0000 000000
2016-02-04 02:46:42,0.11,1.79,0.00,16.11,19.92,23.87,14.95,47.61,1020.03,2062.00,2897.15,2704.47,3032.20,600.15,612.39,14.85,0000 0000 0000 0000 000000
2016-02-04 02:51:43,0.12,1.80,0.00,16.12,19.92,23.90,14.95,47.58,1020.03,2062.00,2894.89,2702.94,3030.54,600.24,612.41,14.90,0000 0000 0000 0000 000000
2016-02-04 02:56:44,0.12,1.80,0.00,16.10,19.92,23.92,14.97,47.51,1020.03,2062.00,2892.60,2701.54,3028.79,600.10,612.34,14.95,0000 0000 0000 0000 000000
2016-02-04 03:01:46,0.11,1.81,0.00,16.09,19.92,23.96,14.93,47.54,1020.03,2062.00,2890.30,2700.13,3027.25,600.01,612.34,15.00,0000 0000 0000 0000 000000
2016-02-04 03:06:47,0.12,1.81,0.00,16.09,19.92,23.87,15.04,47.69,1020.03,2062.00,2888.07,2698.74,3025.62,599.96,612.27,15.05,0000 0000 0000 0000 000000
2016-02-04 03:11:48,0.10,1.82,0.00,16.09,19.92,23.93,14.97,47.69,1020.03,2062.00,2886.06,2697.50,3024.11,600.18,612.51,15.10,0000 0000 0000 0000 000000
2016-02-04 03:16:50,0.10,1.83,0.00,16.09,19.93,23.91,14.88,47.48,1020.04,2062.00,2884.16,2696.26,3022.50,599.93,612.26,15.15,0000 0000 0000 0000 000000
2016-02-04 03:21:51,0.10,1.83,0.00,16.09,19.94,23.97,14.95,47.70,1020.06,2062.00,2882.08,2694.95,3020.94,600.10,612.43,15.20,0000 0000 0000 0000 000000
2016-02-04 03:26:52,0.12,1.84,0.00,16.09,19.94,23.99,15.03,47.74,1020.11,2062.00,2880.04,2693.71,3019.53,600.13,612.51,15.25,0000 0000 0000 0000 000000
2016-02-04 03:31:53,0.11,1.84,0.00,16.09,19.94,23.99,14.90,47.73,1020.09,2062.00,2878.05,2692.39,3017.83,599.97,612.30,15.30,0000 0000 0000 0000 000000
2016-02-04 03:36:55,0.10,1.85,0.00,16.09,19.94,23.94,14.93,47.54,1020.06,2062.00,2876.12,2691.06,3016.24,599.90,612.35,15.35,0000 0000 0000 0000 000000
2016-02-04 03:41:56,0.12,1.85,0.00,16.09,19.95,23.96,15.01,47.64,1020.06,2062.00,2874.10,2689.73,3014.54,600.10,612.43,15.40,0000 0000 0000 0000 000000
2016-02-04 03:46:57,0.10,1.86,0.00,16.09,19.95,23.96,14.97,47.62,1020.04,2061.98,2872.06,2688.48,3012.94,600.22,612.54,15.45,0000 0000 0000 0000 000000
2016-02-04 03:51:58,0.10,1.87,0.00,16.11,19.96,23.96,14.94,47.66,1020.05,2061.98,2870.10,2687.20,3011.37,600.26,612.49,15.50,0000 0000 0000 0000 000000
2016-02-04 03:56:59,0.12,1.87,0.00,16.10,19.96,23.97,14.93,47.47,1020.05,2061.99,2867.99,2685.87,3009.74,599.84,612.10,15.55,0000 0000 0000 0000 000000
2016-02-04 04:02:01,0.10,1.88,0.00,16.09,19.96,23.97,14.94,47.32,1020.07,2061.97,2865.87,2684.55,3008.15,600.36,612.77,15.60,0000 0000 0000 0000 000000
2016-02-04 04:07:02,0.10,1.88,0.00,16.08,19.94,23.94,15.03,47.39,1020.11,2061.98,2863.87,2683.32,3006.70,600.36,612.79,15.65,0000 0000 0000 0000 000000
2016-02-04 04:12:04,0.11,1.89,0.00,16.09,19.94,23.93,14.97,47.43,1020.20,2061.98,2861.75,2681.92,3005.20,599.95,612.65,15.70,0000 0000 0000 0000 000000
2016-02-04 04:17:05,0.11,1.89,0.00,16.09,19.94,23.93,14.95,47.27,1020.32,2061.98,2859.52,2680.63,3003.64,600.16,612.72,15.75,0000 0000 0000 0000 000000
2016-02-04 04:22:06,0.10,1.90,0.00,16.09,19.94,23.93,14.97,47.62,1020.39,2061.98,2857.43,2679.42,3002.19,599.73,612.29,15.80,0000 0000 0000 0000 000000
2016-02-04 04:27:08,0.11,1.91,0.00,16.09,19.93,23.89,14.92,47.38,1020.43,2061.98,2855.26,2678.02,3000.61,599.64,612.25,15.85,0000 0000 0000 0000 000000
2016-02-04 04:32:09,0.11,1.91,0.00,16.09,19.92,23.94,14.96,47.50,1020.50,2061.99,2853.22,2676.71,2999.10,600.16,612.90,15.90,0000 0000 0000 0000 000000
2016-02-04 04:37:10,0.11,1.92,0.00,16.09,19.92,23.90,15.04,47.77,1020.49,2061.99,2851.07,2675.44,2997.52,600.20,612.80,15.95,0000 0000 0000 0000 000000
2016-02-04 04:42:12,0.11,1.92,0.00,16.10,19.92,23.96,14.95,48.14,1020.52,2061.98,2848.98,2674.05,2995.90,599.73,612.35,16.00,0000 0000 0000 0000 000000
2016-02-04 04:47:13,0.11,1.93,0.00,16.09,19.91,23.94,15.03,47.67,1020.52,2061.99,2847.00,2672.83,2994.44,600.23,612.95,16.05,0000 0000 0000 0000 000000
2016-02-04 04:52:14,0.11,1.93,0.00,16.08,19.92,23.97,14.98,47.54,1020.52,2061.98,2844.99,2671.65,2992.88,600.25,612.76,16.10,0000 0000 0000 0000 000000
2016-02-04 04:57:15,0.11,1.94,0.00,16.06,19.92,23.98,14.97,47.62,1020.52,2061.98,2842.89,2670.37,2991.43,600.15,612.79,16.15,0000 0000 0000 0000 000000
2016-02-04 05:02:17,0.10,1.95,0.00,16.07,19.92,23.95,14.99,47.38,1020.52,2061.99,2841.07,2669.09,2989.83,599.83,612.48,16.20,0000 0000 0000 0000 000000
2016-02-04 05:07:18,0.12,1.95,0.00,16.07,19.92,23.93,15.00,47.37,1020.51,2061.97,2839.15,2667.78,2988.22,600.17,612.77,16.25,0000 0000 0000 0000 000000
2016-02-04 05:12:20,0.12,1.96,0.00,16.08,19.92,23.97,14.91,47.42,1020.51,2061.98,2836.92,2666.47,2986.63,599.97,612.72,16.30,0000 0000 0000 0000 000000
2016-02-04 05:17:21,0.12,1.96,0.00,16.07,19.92,23.96,14.97,47.48,1020.52,2061.97,2834.77,2665.00,2984.79,599.87,612.54,16.35,0000 0000 0000 0000 000000
2016-02-04 05:22:22,0.12,1.97,0.00,16.08,19.92,23.98,15.01,47.38,1020.52,2061.97,2832.50,2663.62,2983.21,600.31,612.96,16.40,0000 0000 0000 0000 000000
2016-02-04 05:27:23,0.12,1.97,0.00,16.08,19.92,23.95,14.90,47.38,1020.54,2061.97,2830.20,2662.23,2981.57,599.84,612.34,16.45,0000 0000 0000 0000 000000
2016-02-04 05:32:25,0.11,1.98,0.00,16.06,19.92,23.93,14.94,47.38,1020.54,2061.96,2828.25,2660.82,2979.86,599.95,612.61,16.50,0000 0000 0000 0000 000000
2016-02-04 05:37:26,0.11,1.99,0.00,16.05,19.90,24.00,14.96,47.42,1020.56,2061.93,2826.25,2659.58,2978.28,600.28,612.98,16.55,0000 0000 0000 0000 000000
2016-02-04 05:42:27,0.11,1.99,0.00,16.06,19.89,23.93,14.96,47.38,1020.55,2061.96,2824.14,2658.31,2976.76,599.84,612.49,16.60,0000 0000 0000 0000 000000
2016-02-04 05:47:29,0.12,2.00,0.00,16.05,19.89,23.87,15.02,47.33,1020.60,2061.98,2821.98,2656.96,2975.28,600.07,612.81,16.65,0000 0000 0000 0000 000000
2016-02-04 05:52:30,0.12,2.00,0.00,16.04,19.87,23.86,15.01,47.46,1020.62,2061.98,2819.79,2655.62,2973.66,599.99,612.74,16.70,0000 0000 0000 0000 000000
2016-02-04 05:57:31,0.10,2.01,0.00,16.02,19.87,23.80,15.01,47.45,1020.62,2061.98,2817.73,2654.33,2972.16,600.00,612.84,16.75,0000 0000 0000 0000 000000
2016-02-04 06:02:32,0.11,2.02,0.00,16.03,19.86,23.91,15.01,47.42,1020.74,2061.98,2815.90,2653.01,2970.56,600.13,613.00,16.80,0000 0000 0000 0000 000000
2016-02-04 06:07:33,0.12,2.02,0.00,16.03,19.84,23.83,14.99,47.38,1020.57,2061.99,2813.88,2651.72,2969.02,600.07,612.78,16.85,0000 0000 0000 0000 000000
2016-02-04 06:12:35,0.12,2.03,0.00,16.03,19.84,23.89,14.99,47.49,1020.54,2061.98,2811.60,2650.35,2967.52,600.17,612.91,16.90,0000 0000 0000 0000 000000
2016-02-04 06:17:36,0.11,2.03,0.00,16.03,19.84,23.86,15.03,47.47,1020.54,2061.99,2809.53,2648.99,2965.92,599.63,612.41,16.95,0000 0000 0000 0000 000000
2016-02-04 06:22:37,0.11,2.04,0.00,16.01,19.83,23.86,14.90,47.21,1020.54,2061.99,2807.61,2647.70,2964.38,599.84,612.64,17.00,0000 0000 0000 0000 000000
2016-02-04 06:27:38,0.11,2.05,0.00,16.01,19.82,23.83,14.97,47.23,1020.53,2061.99,2805.52,2646.41,2962.75,600.19,613.01,17.05,0000 0000 0000 0000 000000
2016-02-04 06:32:39,0.11,2.05,0.00,15.99,19.82,23.78,14.96,47.29,1020.56,2061.99,2803.38,2645.07,2961.24,600.02,612.96,17.11,0000 0000 0000 0000 000000
2016-02-04 06:37:41,0.11,2.06,0.00,15.98,19.82,23.84,14.95,47.44,1020.59,2061.99,2801.34,2643.78,2959.72,599.65,612.54,17.16,0000 0000 0000 0000 000000
2016-02-04 06:42:42,0.11,2.06,0.00,15.99,19.81,23.75,15.05,47.72,1020.64,2062.00,2799.31,2642.49,2958.14,600.05,612.96,17.21,0000 0000 0000 0000 000000
2016-02-04 06:47:44,0.10,2.07,0.00,16.00,19.80,23.80,14.94,47.43,1020.56,2062.00,2797.38,2641.19,2956.58,599.55,612.44,17.26,0000 0000 0000 0000 000000
2016-02-04 06:52:45,0.12,2.08,0.00,15.99,19.79,23.80,14.98,47.27,1020.57,2062.00,2795.36,2639.85,2954.91,600.09,613.01,17.31,0000 0000 0000 0000 000000
2016-02-04 06:57:47,0.12,2.08,0.00,15.99,19.79,23.84,15.02,47.23,1020.64,2062.00,2793.27,2638.51,2953.44,600.13,612.97,17.36,0000 0000 0000 0000 000000
2016-02-04 07:02:48,0.11,2.09,0.00,15.99,19.79,23.84,14.99,47.34,1020.75,2062.00,2791.11,2637.17,2951.78,600.24,613.22,17.41,0000 0000 0000 0000 000000
2016-02-04 07:07:50,0.12,2.09,0.00,15.99,19.79,23.80,14.96,47.41,1020.77,2062.00,2789.14,2635.80,2950.22,600.05,613.07,17.46,0000 0000 0000 0000 000000
2016-02-04 07:12:51,0.12,2.10,0.00,15.98,19.79,23.80,15.06,47.36,1020.68,2062.00,2786.94,2634.49,2948.66,600.20,613.04,17.51,0000 0000 0000 0000 000000
2016-02-04 07:17:53,0.10,2.11,0.00,15.96,19.79,23.88,14.98,47.21,1020.55,2062.00,2784.87,2633.15,2947.12,599.86,612.75,17.56,0000 0000 0000 0000 000000
2016-02-04 07:22:54,0.13,2.11,0.00,15.97,19.77,23.80,15.04,47.30,1020.56,2062.00,2782.89,2631.73,2945.48,599.67,612.52,17.61,0000 0000 0000 0000 000000
2016-02-04 07:27:56,0.11,2.12,0.00,15.95,19.77,23.85,14.98,47.23,1020.58,2062.00,2780.89,2630.46,2943.79,599.91,612.86,17.66,0000 0000 0000 0000 000000
2016-02-04 07:32:57,0.12,2.12,0.00,15.95,19.76,23.79,14.87,47.63,1020.73,2062.00,2778.56,2628.90,2942.24,599.69,612.73,17.71,0000 0000 0000 0000 000000
2016-02-04 07:37:58,0.12,2.13,0.00,15.94,19.75,23.79,14.88,47.32,1020.94,2062.00,2776.49,2627.52,2940.61,599.82,613.00,17.76,0000 0000 0000 0000 000000
2016-02-04 07:43:00,0.11,2.14,0.00,15.94,19.75,23.79,14.98,47.31,1021.01,2062.01,2774.35,2626.16,2939.02,599.79,613.01,17.81,0000 0000 0000 0000 000000
2016-02-04 07:48:01,0.13,2.14,0.00,15.94,19.74,23.80,14.96,47.36,1021.01,2062.00,2772.20,2624.74,2937.45,599.85,613.03,17.86,0000 0000 0000 0000 000000
2016-02-04 07:53:02,0.11,2.15,0.00,15.94,19.74,23.82,14.98,47.31,1021.02,2062.01,2770.09,2623.42,2935.86,599.79,613.03,17.91,0000 0000 0000 0000 000000
2016-02-04 07:58:03,0.10,2.15,0.00,15.93,19.74,23.94,14.96,47.13,1021.02,2062.01,2768.18,2622.27,2934.21,600.18,613.46,17.96,0000 0000 0000 0000 000000
2016-02-04 08:03:05,0.13,2.16,0.00,15.94,19.74,23.83,14.91,47.37,1021.05,2062.01,2766.06,2620.83,2932.65,599.96,613.25,18.01,0000 0000 0000 0000 000000
2016-02-04 08:08:06,0.12,2.17,0.00,15.91,19.74,23.80,15.00,47.35,1021.11,2062.02,2763.86,2619.50,2931.00,600.00,613.35,18.06,0000 0000 0000 0000 000000
2016-02-04 08:13:08,0.11,2.17,0.00,15.90,19.74,23.76,15.03,47.33,1021.24,2062.02,2761.70,2618.06,2929.38,600.23,613.68,18.11,0000 0000 0000 0000 000000
2016-02-04 08:18:09,0.13,2.18,0.00,15.90,19.74,23.85,14.98,47.50,1021.40,2062.02,2759.47,2616.65,2927.79,600.08,613.58,18.16,0000 0000 0000 0000 000000
2016-02-04 08:23:10,0.11,2.19,0.00,15.90,19.74,23.81,14.94,47.47,1021.47,2062.03,2757.43,2615.28,2926.09,599.94,613.51,18.21,0000 0000 0000 0000 000000
2016-02-04 08:28:11,0.12,2.19,0.00,15.89,19.75,23.81,14.96,47.18,1021.35,2062.01,2755.67,2613.87,2924.37,599.96,613.53,18.26,0000 0000 0000 0000 000000
2016-02-04 08:33:13,0.13,2.20,0.00,15.89,19.77,23.82,15.03,47.23,1021.44,2062.00,2753.56,2612.49,2922.64,600.33,613.93,18.31,0000 0000 0000 0000 000000
2016-02-04 08:38:14,0.11,2.20,0.00,15.89,19.77,23.84,14.99,47.39,1021.50,2062.00,2751.42,2611.07,2921.04,599.94,613.57,18.36,0000 0000 0000 0000 000000
2016-02-04 08:43:16,0.13,2.21,0.00,15.85,19.77,23.80,14.98,47.22,1021.50,2062.00,2749.29,2609.60,2919.42,599.56,613.26,18.41,0000 0000 0000 0000 000000
2016-02-04 08:48:17,0.13,2.22,0.00,15.83,19.77,23.90,15.06,47.48,1021.50,2062.00,2747.03,2608.19,2917.74,600.36,614.12,18.46,0000 0000 0000 0000 000000
2016-02-04 08:53:18,0.13,2.22,0.00,15.84,19.77,23.87,15.01,47.37,1021.50,2062.00,2744.74,2606.67,2916.03,599.76,613.55,18.51,0000 0000 0000 0000 000000
2016-02-04 08:58:19,0.11,2.23,0.00,15.82,19.77,23.78,15.10,47.30,1021.50,2062.00,2742.85,2605.33,2914.35,599.88,613.59,18.56,0000 0000 0000 0000 000000
2016-02-04 09:03:21,0.14,2.24,0.00,15.80,19.77,23.83,15.02,47.15,1021.50,2062.00,2740.57,2603.76,2912.61,600.04,613.86,18.61,0000 0000 0000 0000 000000
2016-02-04 09:08:22,0.12,2.25,0.00,15.80,19.77,23.81,14.92,47.05,1021.50,2062.00,2738.44,2602.33,2910.89,599.87,613.73,18.66,0000 0000 0000 0000 000000
2016-02-04 09:13:23,0.13,2.25,0.00,15.79,19.76,23.92,15.00,47.57,1021.50,2062.00,2736.38,2600.81,2909.10,600.32,614.23,18.71,0000 0000 0000 0000 000000
2016-02-04 09:18:25,0.13,2.26,0.00,15.78,19.75,23.80,14.95,47.23,1021.50,2062.00,2734.04,2599.43,2907.45,599.74,613.58,18.76,0000 0000 0000 0000 000000
2016-02-04 09:23:26,0.12,2.26,0.00,15.76,19.74,23.85,14.92,47.25,1021.52,2062.00,2731.86,2597.94,2905.78,599.56,613.46,18.81,0000 0000 0000 0000 000000
2016-02-04 09:28:27,0.12,2.27,0.00,15.75,19.73,23.81,15.08,47.38,1021.61,2062.00,2729.64,2596.55,2904.23,600.35,614.24,18.86,0000 0000 0000 0000 000000
2016-02-04 09:33:29,0.12,2.28,0.00,15.74,19.72,23.78,15.02,47.46,1021.65,2062.01,2727.40,2595.14,2902.65,599.99,614.04,18.91,0000 0000 0000 0000 000000
2016-02-04 09:38:30,0.13,2.28,0.00,15.73,19.71,23.78,15.00,47.56,1021.78,2062.01,2725.31,2593.73,2901.02,599.98,614.19,18.96,0000 0000 0000 0000 000000
2016-02-04 09:43:31,0.12,2.29,0.00,15.74,19.70,23.75,14.95,47.36,1021.94,2062.03,2723.17,2592.33,2899.30,599.78,613.98,19.01,0000 0000 0000 0000 000000
2016-02-04 09:48:33,0.15,2.30,0.00,15.74,19.69,23.79,15.06,47.38,1021.97,2062.02,2721.01,2590.71,2897.31,600.21,614.27,19.06,0000 0000 0000 0000 000000
2016-02-04 09:53:34,0.21,2.31,0.00,15.72,19.69,23.78,14.98,47.29,1021.98,2062.03,2717.47,2588.53,2895.01,600.08,614.32,19.11,0000 0000 0000 0000 000000
2016-02-04 09:58:36,0.18,2.32,0.00,15.70,19.69,23.80,15.02,47.42,1021.98,2062.04,2714.08,2586.50,2892.66,600.03,614.35,19.16,0000 0000 0000 0000 000000
2016-02-04 10:03:37,0.17,2.33,0.00,15.69,19.68,23.82,15.06,47.31,1021.99,2062.04,2711.53,2584.67,2890.36,599.72,614.06,19.21,0000 0000 0000 0000 000000
2016-02-04 10:08:39,0.16,2.33,0.00,15.72,19.67,23.69,14.99,47.15,1021.99,2062.04,2708.82,2582.80,2888.30,599.88,614.20,19.26,0000 0000 0000 0000 000000
2016-02-04 10:13:40,0.13,2.34,0.00,15.70,19.67,23.78,14.94,47.12,1021.99,2062.02,2706.39,2581.16,2886.40,599.67,613.92,19.31,0000 0000 0000 0000 000000
2016-02-04 10:18:41,0.15,2.35,0.00,15.69,19.65,23.77,15.04,47.40,1021.99,2062.05,2703.96,2579.59,2884.69,600.12,614.47,19.36,0000 0000 0000 0000 000000
2016-02-04 10:23:42,0.14,2.36,0.00,15.69,19.64,23.71,14.99,47.30,1021.99,2062.05,2701.51,2578.02,2882.89,599.88,614.22,19.41,0000 0000 0000 0000 000000
2016-02-04 10:28:43,0.17,2.36,0.00,15.66,19.62,23.69,15.03,47.59,1021.99,2062.15,2698.76,2576.36,2880.99,600.18,614.66,19.46,0000 0000 0000 0000 000000
2016-02-04 10:33:45,0.16,2.37,0.00,15.65,19.61,23.73,14.97,47.36,1021.99,2062.39,2696.29,2574.74,2879.31,600.03,614.51,19.51,0000 0000 0000 0000 000000
2016-02-04 10:38:46,0.15,2.38,0.00,15.65,19.59,23.64,15.05,47.63,1022.00,2062.69,2694.14,2573.42,2877.83,599.94,614.39,19.56,0000 0000 0000 0000 000000
2016-02-04 10:43:47,0.11,2.39,0.00,15.64,19.59,23.61,15.08,47.76,1022.03,2062.84,2692.20,2572.16,2876.39,600.41,614.85,19.61,0000 0000 0000 0000 000000
2016-02-04 10:48:49,0.12,2.39,0.00,15.64,19.58,23.70,15.09,47.60,1022.06,2062.89,2690.28,2570.92,2874.88,600.20,614.71,19.66,0000 0000 0000 0000 000000
2016-02-04 10:53:50,0.13,2.40,0.00,15.61,19.57,23.62,15.02,47.76,1022.01,2062.91,2688.23,2569.67,2873.32,599.97,614.50,19.71,0000 0000 0000 0000 000000
2016-02-04 10:58:51,0.24,2.41,0.00,15.62,19.56,23.67,15.04,47.94,1022.02,2062.91,2684.94,2567.43,2870.68,600.17,614.70,19.76,0000 0000 0000 0000 000000
2016-02-04 11:03:52,0.28,2.42,0.00,15.62,19.54,23.64,15.05,48.15,1022.09,2062.96,2680.21,2564.42,2867.33,600.35,614.84,19.81,0000 0000 0000 0000 000000
2016-02-04 11:08:54,0.32,2.44,0.00,15.61,19.54,23.55,15.07,48.02,1022.17,2062.96,2675.05,2561.09,2863.58,600.05,614.72,19.86,0000 0000 0000 0000 000000
2016-02-04 11:13:55,0.30,2.45,0.00,15.59,19.54,23.55,15.05,47.92,1022.12,2062.95,2669.74,2557.84,2859.73,600.01,614.54,19.91,0000 0000 0000 0000 000000
2016-02-04 11:18:56,0.28,2.47,0.00,15.58,19.53,23.53,15.01,47.81,1022.25,2062.96,2664.87,2554.83,2856.27,599.89,614.74,19.96,0000 0000 0000 0000 000000
2016-02-04 11:23:58,0.21,2.48,0.00,15.58,19.52,23.57,15.05,47.47,1022.32,2062.97,2661.29,2552.37,2853.31,600.08,614.90,20.01,0000 0000 0000 0000 000000
2016-02-04 11:28:59,0.32,2.50,0.00,15.58,19.52,23.56,14.98,47.86,1022.30,2062.98,2656.08,2549.18,2849.83,600.20,614.75,20.06,0000 0000 0000 0000 000000
2016-02-04 11:34:00,0.29,2.51,0.00,15.59,19.49,23.54,15.07,48.20,1022.39,2062.97,2650.99,2545.97,2846.28,599.96,614.76,20.11,0000 0000 0000 0000 000000
2016-02-04 11:39:02,0.23,2.52,0.00,15.57,19.49,23.58,14.93,48.00,1022.37,2062.98,2646.80,2543.34,2843.18,599.59,614.41,20.16,0000 0000 0000 0000 000000
2016-02-04 11:44:03,0.32,2.54,0.00,15.55,19.49,23.51,14.96,47.67,1022.40,2062.98,2642.22,2540.13,2839.42,599.81,614.66,20.21,0000 0000 0000 0000 000000
2016-02-04 11:49:04,0.27,2.55,0.00,15.57,19.48,23.53,15.00,47.46,1022.41,2062.98,2637.48,2537.06,2835.93,599.60,614.42,20.26,0000 0000 0000 0000 000000
2016-02-04 11:54:06,0.27,2.57,0.00,15.54,19.47,23.52,15.15,47.43,1022.38,2062.97,2633.01,2534.12,2832.63,600.87,615.80,20.32,0000 0000 0000 0000 000000
2016-02-04 11:59:07,0.27,2.58,0.00,15.54,19.47,23.51,14.99,47.42,1022.46,2062.98,2628.58,2531.23,2829.38,599.70,614.75,20.37,0000 0000 0000 0000 000000
2016-02-04 12:04:08,0.27,2.59,0.00,15.51,19.46,23.52,14.99,47.36,1022.48,2062.99,2624.13,2528.40,2826.18,600.25,615.32,20.42,0000 0000 0000 0000 000000
2016-02-04 12:09:09,0.28,2.61,0.00,15.52,19.44,23.53,15.06,47.67,1022.48,2062.99,2619.67,2525.37,2822.86,599.96,615.04,20.47,0000 0000 0000 0000 000000
2016-02-04 12:14:11,0.25,2.62,0.00,15.51,19.43,23.44,15.08,47.27,1022.50,2062.99,2615.58,2522.71,2819.82,599.78,614.80,20.52,0000 0000 0000 0000 000000
2016-02-04 12:19:12,0.26,2.63,0.00,15.52,19.42,23.41,14.99,47.21,1022.53,2062.99,2611.35,2520.00,2816.86,599.73,614.80,20.57,0000 0000 0000 0000 000000
2016-02-04 12:24:13,0.28,2.65,0.00,15.49,19.40,23.42,15.05,47.60,1022.53,2062.99,2606.87,2517.10,2813.72,600.35,615.63,20.62,0000 0000 0000 0000 000000
2016-02-04 12:29:14,0.29,2.66,0.00,15.47,19.39,23.32,15.05,47.83,1022.51,2062.99,2602.16,2514.13,2810.37,599.93,614.95,20.67,0000 0000 0000 0000 000000
2016-02-04 12:34:16,0.32,2.68,0.00,15.47,19.36,23.33,15.00,48.42,1022.49,2063.01,2597.13,2510.92,2806.83,600.49,615.63,20.72,0000 0000 0000 0000 000000
2016-02-04 12:39:17,0.29,2.69,0.00,15.48,19.34,23.35,15.00,48.22,1022.49,2063.02,2592.38,2507.87,2803.25,599.80,614.91,20.77,0000 0000 0000 0000 000000
2016-02-04 12:44:18,0.29,2.71,0.00,15.49,19.34,23.38,15.13,48.16,1022.50,2063.02,2588.06,2504.75,2799.62,600.25,615.35,20.82,0000 0000 0000 0000 000000
2016-02-04 12:49:20,0.34,2.72,0.00,15.47,19.33,23.40,15.04,47.77,1022.53,2063.01,2582.98,2501.22,2795.55,599.58,614.71,20.87,0000 0000 0000 0000 000000
2016-02-04 12:54:21,0.29,2.74,0.00,15.44,19.32,23.35,14.98,47.53,1022.62,2063.01,2578.29,2498.02,2791.83,599.66,614.90,20.92,0000 0000 0000 0000 000000